period_start,C,m1,H,J0,J1,J2,J3,J4,J5,JA,JB,JC,JD,JJ,JK,JN,#
2016-03-27 00:04:36,0.20,3.79,0.00,14.99,20.77,24.15,15.06,47.66,1014.66,2059.00,2282.59,2286.89,2573.76,600.15,611.74,23.85,0000 0000 0000 0000 000000
2016-03-27 00:09:37,0.22,3.81,0.00,15.00,20.76,24.03,14.94,47.63,1014.66,2059.00,2279.66,2284.96,2571.58,599.97,611.42,23.90,0000 0000 0000 0000 000000
2016-03-27 00:14:39,0.17,3.82,0.00,14.99,20.74,24.22,15.06,47.59,1014.66,2059.01,2277.30,2283.27,2569.60,600.07,611.49,23.95,0000 0000 0000 0000 000000
2016-03-27 00:19:40,0.19,3.82,0.00,14.99,20.74,24.03,14.96,47.73,1014.67,2059.00,2274.72,2281.59,2567.70,599.80,611.22,24.00,0000 0000 0000 0000 000000
2016-03-27 00:24:41,0.20,3.84,0.00,14.99,20.73,23.99,14.99,47.74,1014.66,2059.01,2272.13,2279.90,2565.79,600.13,611.43,24.05,0000 0000 0000 0000 000000
2016-03-27 00:29:42,0.16,3.84,0.00,15.02,20.72,24.05,15.07,47.77,1014.67,2059.02,2269.71,2278.37,2564.04,600.00,611.29,24.10,0000 0000 0000 0000 000000
2016-03-27 00:34:44,0.20,3.85,0.00,15.04,20.72,24.11,15.06,47.85,1014.67,2059.03,2267.39,2276.67,2562.12,600.20,611.54,24.15,0000 0000 0000 0000 000000
2016-03-27 00:39:45,0.18,3.86,0.00,15.03,20.72,24.09,14.95,47.74,1014.69,2059.05,2265.12,2274.96,2560.18,599.95,611.30,24.20,0000 0000 0000 0000 000000
2016-03-27 00:44:47,0.14,3.87,0.00,15.08,20.73,24.01,14.95,47.88,1014.68,2059.06,2263.35,2273.60,2558.71,599.62,610.92,24.25,0000 0000 0000 0000 000000
2016-03-27 00:49:48,0.17,3.88,0.00,15.08,20.74,24.00,14.98,47.78,1014.68,2059.08,2261.02,2272.17,2557.11,600.11,611.37,24.30,0000 0000 0000 0000 000000
2016-03-27 00:54:49,0.16,3.89,0.00,15.11,20.74,24.05,15.03,47.83,1014.69,2059.05,2258.97,2270.67,2555.49,599.71,610.95,24.35,0000 0000 0000 0000 000000
2016-03-27 00:59:50,0.15,3.90,0.00,15.16,20.77,24.04,14.97,47.86,1014.68,2059.04,2256.99,2269.34,2553.86,599.89,610.95,24.40,0000 0000 0000 0000 000000
2016-03-27 01:04:51,0.18,3.90,0.00,15.20,20.77,24.13,15.03,47.82,1014.68,2059.02,2254.60,2267.74,2552.15,600.32,611.30,24.45,0000 0000 0000 0000 000000
2016-03-27 01:09:53,0.15,3.91,0.00,15.20,20.77,24.16,15.04,47.88,1014.67,2059.01,2252.53,2266.36,2550.53,599.35,610.39,24.50,0000 0000 0000 0000 000000
2016-03-27 01:14:54,0.16,3.92,0.00,15.23,20.79,24.23,15.03,47.89,1014.67,2059.01,2250.57,2264.98,2548.93,599.99,610.91,24.55,0000 0000 0000 0000 000000
2016-03-27 01:19:55,0.17,3.93,0.00,15.25,20.79,24.25,15.06,47.89,1014.67,2059.01,2248.23,2263.50,2547.22,600.23,611.07,24.60,0000 0000 0000 0000 000000
2016-03-27 01:24:57,0.14,3.94,0.00,15.28,20.79,24.31,14.93,47.73,1014.68,2059.00,2246.46,2262.18,2545.68,599.86,610.74,24.65,0000 0000 0000 0000 000000
2016-03-27 01:29:58,0.17,3.95,0.00,15.29,20.81,24.38,15.01,47.81,1014.68,2059.02,2244.33,2260.73,2544.11,599.96,610.70,24.70,0000 0000 0000 0000 000000
2016-03-27 01:35:00,0.15,3.95,0.00,15.31,20.82,24.37,14.99,47.81,1014.67,2059.01,2242.35,2259.45,2542.54,600.15,610.91,24.75,0000 0000 0000 0000 000000
2016-03-27 01:40:01,0.14,3.96,0.00,15.35,20.83,24.41,15.00,47.88,1014.68,2059.00,2240.43,2258.03,2540.90,600.01,610.60,24.80,0000 0000 0000 0000 000000
2016-03-27 01:45:02,0.16,3.97,0.00,15.39,20.84,24.50,15.01,47.78,1014.67,2059.00,2238.66,2256.70,2539.33,600.03,610.52,24.85,0000 0000 0000 0000 000000
2016-03-27 01:50:04,0.16,3.98,0.00,15.42,20.86,24.51,14.95,47.81,1014.66,2059.00,2236.60,2255.37,2537.69,599.84,610.37,24.90,0000 0000 0000 0000 000000
2016-03-27 01:55:05,0.14,3.98,0.00,15.43,20.87,24.48,14.94,47.72,1014.67,2059.00,2234.81,2253.94,2536.24,599.98,610.52,24.95,0000 0000 0000 0000 000000
2016-03-27 02:00:07,0.17,3.99,0.00,15.48,20.89,24.66,15.02,47.88,1014.67,2058.99,2232.69,2252.58,2534.62,600.16,610.60,25.00,0000 0000 0000 0000 000000
2016-03-27 02:05:08,0.16,4.00,0.00,15.54,20.91,24.72,14.98,47.81,1014.68,2058.98,2230.54,2251.09,2532.89,599.91,610.34,25.05,0000 0000 0000 0000 000000
2016-03-27 02:10:09,0.15,4.01,0.00,15.57,20.92,24.79,15.01,47.92,1014.68,2058.97,2228.61,2249.71,2531.33,600.18,610.40,25.10,0000 0000 0000 0000 000000
2016-03-27 02:15:10,0.14,4.02,0.00,15.60,20.94,24.80,14.93,47.85,1014.67,2058.98,2226.89,2248.49,2529.81,599.69,609.76,25.15,0000 0000 0000 0000 000000
2016-03-27 02:20:12,0.14,4.02,0.00,15.64,20.96,24.82,14.99,47.83,1014.69,2058.95,2225.09,2247.22,2528.43,600.21,610.26,25.20,0000 0000 0000 0000 000000
2016-03-27 02:25:13,0.17,4.03,0.00,15.69,20.97,24.85,15.00,47.88,1014.70,2058.95,2223.06,2245.77,2526.78,599.92,609.75,25.25,0000 0000 0000 0000 000000
2016-03-27 02:30:14,0.14,4.04,0.00,15.73,20.99,24.84,14.96,47.78,1014.75,2058.91,2221.02,2244.49,2525.20,600.02,609.97,25.30,0000 0000 0000 0000 000000
2016-03-27 02:35:15,0.14,4.05,0.00,15.78,21.01,24.85,14.98,47.86,1014.73,2058.75,2218.99,2243.02,2523.62,599.85,609.65,25.35,0000 0000 0000 0000 000000
2016-03-27 02:40:16,0.09,4.05,0.00,15.81,21.02,24.95,14.92,47.87,1014.79,2058.43,2217.31,2241.75,2522.06,600.20,609.91,25.41,0000 0000 0000 0000 000000
2016-03-27 02:45:18,0.15,4.06,0.00,15.86,21.04,24.91,14.90,47.83,1014.73,2058.14,2215.04,2240.37,2520.48,599.39,608.92,25.46,0000 0000 0000 0000 000000
2016-03-27 02:50:19,0.14,4.07,0.00,15.94,21.07,24.92,14.95,47.75,1014.72,2058.05,2213.10,2239.03,2518.83,599.52,608.97,25.51,0000 0000 0000 0000 000000
2016-03-27 02:55:20,0.17,4.07,0.00,16.00,21.08,24.99,14.89,47.75,1014.70,2058.03,2211.02,2237.73,2517.24,599.74,609.05,25.56,0000 0000 0000 0000 000000
2016-03-27 03:00:21,0.15,4.08,0.00,16.04,21.10,25.03,14.96,47.75,1014.71,2058.01,2209.08,2236.41,2515.65,600.22,609.59,25.61,0000 0000 0000 0000 000000
2016-03-27 03:05:22,0.15,4.09,0.00,16.07,21.12,25.04,14.93,47.71,1014.70,2058.00,2207.15,2235.01,2514.07,599.86,609.11,25.66,0000 0000 0000 0000 000000
2016-03-27 03:10:24,0.16,4.10,0.00,16.13,21.14,25.14,15.04,47.79,1014.68,2058.00,2205.16,2233.61,2512.47,600.39,609.37,25.71,0000 0000 0000 0000 000000
2016-03-27 03:15:25,0.24,4.11,0.00,16.17,21.17,25.24,14.96,47.83,1014.68,2058.00,2202.33,2231.67,2510.25,600.16,609.10,25.76,0000 0000 0000 0000 000000
2016-03-27 03:20:26,0.16,4.12,0.00,16.22,21.19,25.27,14.95,47.68,1014.75,2057.99,2200.13,2230.04,2508.45,600.06,608.94,25.81,0000 0000 0000 0000 000000
2016-03-27 03:25:27,0.16,4.13,0.00,16.25,21.23,25.32,14.92,47.89,1014.82,2057.98,2198.20,2228.68,2506.82,600.13,609.05,25.86,0000 0000 0000 0000 000000
2016-03-27 03:30:29,0.16,4.14,0.00,16.30,21.26,25.39,14.93,47.87,1014.83,2057.96,2196.28,2227.25,2505.16,600.32,609.09,25.91,0000 0000 0000 0000 000000
2016-03-27 03:35:30,0.44,4.15,0.00,16.38,21.29,25.41,14.89,47.89,1014.82,2057.81,2191.54,2223.98,2501.43,599.62,608.20,25.96,0000 0000 0000 0000 000000
2016-03-27 03:40:31,0.39,4.17,0.00,16.41,21.33,25.47,14.95,47.92,1014.83,2057.35,2185.74,2220.10,2497.11,600.08,608.60,26.01,0000 0000 0000 0000 000000
2016-03-27 03:45:33,0.34,4.19,0.00,16.47,21.37,25.50,14.94,47.90,1014.80,2057.09,2180.78,2216.79,2493.57,600.21,608.30,26.06,0000 0000 0000 0000 000000
2016-03-27 03:50:34,0.32,4.21,0.00,16.52,21.41,25.56,14.95,47.92,1014.75,2057.01,2176.81,2213.98,2490.39,600.08,608.34,26.11,0000 0000 0000 0000 000000
2016-03-27 03:55:35,0.30,4.23,0.00,16.56,21.46,25.58,14.95,47.98,1014.74,2057.00,2173.19,2211.22,2487.31,599.70,607.87,26.16,0000 0000 0000 0000 000000
2016-03-27 04:00:36,0.31,4.24,0.00,16.62,21.50,25.62,14.93,48.02,1014.72,2056.99,2169.66,2208.55,2484.31,599.92,607.96,26.21,0000 0000 0000 0000 000000
2016-03-27 04:05:38,0.30,4.26,0.00,16.69,21.56,25.64,14.93,48.02,1014.77,2056.97,2166.08,2205.86,2481.25,600.16,608.00,26.26,0000 0000 0000 0000 000000
2016-03-27 04:10:39,0.28,4.27,0.00,16.76,21.61,25.64,14.96,48.02,1014.72,2056.78,2162.43,2203.11,2478.18,600.26,607.94,26.31,0000 0000 0000 0000 000000
2016-03-27 04:15:40,0.36,4.29,0.00,16.80,21.66,25.72,14.91,47.96,1014.79,2056.15,2157.84,2199.70,2474.38,600.13,607.82,26.36,0000 0000 0000 0000 000000
2016-03-27 04:20:42,0.43,4.31,0.00,16.86,21.72,25.78,14.94,47.93,1014.96,2056.00,2152.81,2196.00,2470.22,600.38,608.07,26.41,0000 0000 0000 0000 000000
2016-03-27 04:25:43,0.50,4.33,0.00,16.89,21.77,25.83,14.93,48.04,1014.91,2056.00,2147.11,2191.88,2465.62,599.87,607.45,26.46,0000 0000 0000 0000 000000
2016-03-27 04:30:44,0.50,4.36,0.00,16.96,21.82,25.85,14.92,48.04,1015.02,2055.92,2141.34,2187.64,2460.86,599.97,607.48,26.51,0000 0000 0000 0000 000000
2016-03-27 04:35:45,0.40,4.38,0.00,17.01,21.88,25.92,14.82,48.04,1015.13,2055.19,2135.68,2183.39,2456.04,599.67,607.13,26.56,0000 0000 0000 0000 000000
2016-03-27 04:40:47,0.41,4.40,0.00,17.00,21.94,25.99,14.98,48.19,1015.14,2055.01,2130.79,2179.73,2451.94,600.30,607.75,26.61,0000 0000 0000 0000 000000
2016-03-27 04:45:48,0.41,4.42,0.00,17.02,21.99,26.02,14.92,48.11,1015.15,2054.99,2126.09,2176.31,2448.06,599.67,607.11,26.66,0000 0000 0000 0000 000000
2016-03-27 04:50:49,0.30,4.44,0.00,17.07,22.04,26.04,14.93,48.23,1015.15,2054.79,2122.15,2173.44,2444.74,600.06,607.42,26.71,0000 0000 0000 0000 000000
2016-03-27 04:55:50,0.30,4.45,0.00,17.11,22.10,26.06,14.91,48.26,1015.15,2054.24,2118.10,2170.57,2441.42,599.94,607.25,26.76,0000 0000 0000 0000 000000
2016-03-27 05:00:51,0.48,4.47,0.00,17.17,22.14,26.13,14.90,48.20,1015.15,2054.02,2112.83,2166.83,2437.27,600.00,607.08,26.81,0000 0000 0000 0000 000000
2016-03-27 05:05:53,0.62,4.50,0.00,17.21,22.19,26.17,14.92,48.13,1015.15,2054.00,2105.94,2161.83,2431.78,600.20,607.29,26.86,0000 0000 0000 0000 000000
2016-03-27 05:10:54,0.71,4.54,0.00,17.25,22.24,26.25,14.82,48.07,1015.15,2053.97,2098.03,2156.16,2425.56,599.75,606.65,26.91,0000 0000 0000 0000 000000
2016-03-27 05:15:55,0.75,4.57,0.00,17.30,22.28,26.25,14.84,48.04,1015.15,2053.95,2089.61,2150.18,2418.91,599.98,606.88,26.96,0000 0000 0000 0000 000000
2016-03-27 05:20:56,0.67,4.61,0.00,17.34,22.32,26.35,14.86,48.14,1015.15,2053.38,2081.16,2144.13,2412.21,599.60,606.34,27.01,0000 0000 0000 0000 000000
2016-03-27 05:25:57,0.65,4.64,0.00,17.39,22.37,26.34,14.86,48.14,1015.15,2053.03,2073.49,2138.55,2406.10,599.91,606.49,27.06,0000 0000 0000 0000 000000
2016-03-27 05:30:58,0.64,4.68,0.90,17.43,22.41,26.40,14.89,48.09,1015.15,2053.00,2066.25,2133.30,2400.25,600.27,606.89,27.11,0000 0000 0000 0000 000000
2016-03-27 05:35:59,0.43,4.70,1.00,17.49,22.46,26.47,14.83,48.00,1015.15,2052.99,2061.13,2129.51,2395.95,599.80,606.29,27.16,0000 0000 0000 0000 000000
2016-03-27 05:41:00,0.38,4.72,1.00,17.53,22.50,26.48,14.87,48.09,1015.16,2052.90,2056.81,2126.33,2392.34,599.90,606.38,27.21,0000 0000 0000 0000 000000
2016-03-27 05:46:02,0.32,4.74,1.00,17.57,22.54,26.49,14.84,48.13,1015.16,2052.39,2052.44,2123.19,2388.79,599.94,606.30,27.26,0000 0000 0000 0000 000000
2016-03-27 05:51:03,0.41,4.76,1.00,17.61,22.59,26.58,14.85,48.23,1015.15,2052.06,2047.81,2119.86,2385.08,600.02,606.16,27.31,0000 0000 0000 0000 000000
2016-03-27 05:56:04,0.38,4.78,1.00,17.66,22.64,26.59,14.88,48.18,1015.16,2052.00,2043.62,2116.67,2381.42,600.12,606.11,27.36,0000 0000 0000 0000 000000
2016-03-27 06:01:05,0.40,4.80,0.10,17.70,22.69,26.66,14.88,48.08,1015.17,2052.00,2039.35,2113.55,2377.90,600.13,606.22,27.41,0000 0000 0000 0000 000000
2016-03-27 06:06:06,0.42,4.82,0.00,17.73,22.73,26.70,14.89,48.21,1015.17,2051.87,2034.53,2110.25,2374.08,600.28,606.23,27.46,0000 0000 0000 0000 000000
2016-03-27 06:11:08,0.39,4.84,0.00,17.75,22.78,26.75,14.89,48.21,1015.20,2051.33,2029.43,2106.67,2370.00,600.15,606.07,27.51,0000 0000 0000 0000 000000
2016-03-27 06:16:09,0.40,4.86,0.00,17.80,22.83,26.80,14.95,48.14,1015.22,2051.01,2024.96,2103.33,2366.35,600.11,606.09,27.56,0000 0000 0000 0000 000000
2016-03-27 06:21:10,0.43,4.88,0.00,17.84,22.87,26.88,14.86,48.10,1015.35,2051.00,2020.31,2100.03,2362.75,600.17,606.01,27.61,0000 0000 0000 0000 000000
2016-03-27 06:26:11,0.44,4.90,0.00,17.89,22.92,26.89,14.89,48.11,1015.51,2050.97,2015.52,2096.64,2358.97,600.16,605.99,27.66,0000 0000 0000 0000 000000
2016-03-27 06:31:12,0.29,4.92,0.00,17.92,22.96,26.91,14.92,48.19,1015.46,2050.82,2011.72,2094.01,2356.01,600.27,605.94,27.71,0000 0000 0000 0000 000000
2016-03-27 06:36:14,0.18,4.93,0.00,17.95,23.00,26.99,14.88,48.19,1015.47,2050.29,2009.06,2092.01,2353.70,600.26,605.93,27.76,0000 0000 0000 0000 000000
2016-03-27 06:41:15,0.28,4.94,0.00,17.97,23.04,27.02,14.77,48.26,1015.52,2050.02,2006.15,2089.79,2351.18,599.90,605.62,27.81,0000 0000 0000 0000 000000
2016-03-27 06:46:16,0.25,4.95,0.00,18.02,23.07,27.08,14.87,48.11,1015.62,2050.00,2003.40,2087.75,2348.86,600.14,605.80,27.86,0000 0000 0000 0000 000000
2016-03-27 06:51:18,0.23,4.97,0.00,18.05,23.10,27.09,14.90,48.00,1015.64,2050.00,2000.83,2085.91,2346.78,600.03,605.62,27.91,0000 0000 0000 0000 000000
2016-03-27 06:56:19,0.21,4.98,0.00,18.08,23.12,27.14,14.88,48.11,1015.64,2049.97,1998.47,2084.23,2344.86,599.92,605.50,27.96,0000 0000 0000 0000 000000
2016-03-27 07:01:21,0.21,4.99,0.00,18.10,23.14,27.24,14.87,48.02,1015.64,2049.96,1996.21,2082.63,2343.02,600.09,605.69,28.01,0000 0000 0000 0000 000000
2016-03-27 07:06:22,0.18,5.00,0.00,18.14,23.16,27.26,14.88,47.85,1015.63,2049.74,1993.94,2081.01,2341.13,600.29,605.63,28.06,0000 0000 0000 0000 000000
2016-03-27 07:11:23,0.13,5.01,0.00,18.16,23.18,27.32,14.84,47.89,1015.64,2049.26,1991.91,2079.50,2339.41,599.62,605.00,28.11,0000 0000 0000 0000 000000
2016-03-27 07:16:24,0.18,5.01,0.00,18.18,23.20,27.35,14.94,47.93,1015.64,2049.06,1989.81,2078.04,2337.76,600.62,605.92,28.16,0000 0000 0000 0000 000000
2016-03-27 07:21:26,0.22,5.02,0.00,18.20,23.22,27.38,14.88,47.91,1015.64,2049.04,1987.45,2076.48,2335.89,600.01,605.34,28.21,0000 0000 0000 0000 000000
2016-03-27 07:26:27,0.21,5.04,0.00,18.26,23.23,27.39,14.86,47.98,1015.65,2049.01,1985.17,2074.78,2334.02,600.21,605.36,28.26,0000 0000 0000 0000 000000
2016-03-27 07:31:28,0.19,5.05,0.00,18.26,23.24,27.46,14.85,47.87,1015.67,2049.01,1983.06,2073.30,2332.28,599.91,605.11,28.31,0000 0000 0000 0000 000000
2016-03-27 07:36:30,0.33,5.06,0.00,18.29,23.27,27.48,14.85,47.78,1015.68,2049.00,1979.51,2071.34,2330.05,600.00,605.10,28.36,0000 0000 0000 0000 000000
2016-03-27 07:41:31,0.40,5.08,0.00,18.33,23.27,27.49,14.90,47.77,1015.69,2049.00,1974.24,2068.74,2327.10,600.38,605.40,28.41,0000 0000 0000 0000 000000
2016-03-27 07:50:50,0.26,5.10,0.00,18.38,23.30,27.50,14.81,47.73,1015.81,2049.00,1969.00,2065.46,2323.32,600.12,605.13,28.51,0000 0000 0000 0000 000000
2016-03-27 07:55:51,0.35,5.12,0.00,18.46,23.32,27.58,14.83,47.74,1015.95,2048.98,1965.45,2062.95,2320.49,600.19,605.14,28.56,0000 0000 0000 0000 000000
2016-03-27 08:00:52,0.30,5.14,0.00,18.54,23.33,27.63,14.80,47.68,1016.08,2048.97,1962.07,2060.56,2317.77,600.08,604.87,28.61,0000 0000 0000 0000 000000
2016-03-27 08:05:53,0.31,5.15,0.00,18.53,23.36,27.65,14.90,47.77,1016.11,2048.95,1958.75,2058.31,2315.25,600.20,605.05,28.66,0000 0000 0000 0000 000000
2016-03-27 08:10:54,0.30,5.17,0.00,18.56,23.38,27.70,14.86,47.77,1016.13,2048.84,1955.46,2056.02,2312.70,600.17,605.21,28.71,0000 0000 0000 0000 000000
2016-03-27 08:15:55,0.21,5.18,0.00,18.61,23.41,27.73,14.82,47.69,1016.13,2048.26,1952.60,2053.99,2310.31,599.90,604.57,28.76,0000 0000 0000 0000 000000
2016-03-27 08:20:56,0.30,5.19,0.00,18.66,23.45,27.74,14.87,47.79,1016.13,2048.05,1949.12,2051.64,2307.70,600.18,604.80,28.81,0000 0000 0000 0000 000000
2016-03-27 08:25:57,0.35,5.21,0.00,18.78,23.48,27.77,14.80,47.73,1016.13,2048.01,1945.65,2048.93,2304.68,599.86,604.24,28.86,0000 0000 0000 0000 000000
2016-03-27 08:30:59,0.27,5.23,0.00,18.81,23.52,27.73,14.79,47.73,1016.13,2047.99,1942.82,2046.83,2302.30,599.80,604.26,28.91,0000 0000 0000 0000 000000
2016-03-27 08:36:00,0.27,5.24,0.00,18.80,23.56,27.64,14.79,47.87,1016.15,2047.97,1940.11,2044.88,2299.98,599.88,604.17,28.96,0000 0000 0000 0000 000000
2016-03-27 08:41:01,0.16,5.25,0.00,18.85,23.60,27.63,14.85,47.70,1016.22,2047.49,1937.76,2043.02,2297.84,600.14,604.55,29.01,0000 0000 0000 0000 000000
2016-03-27 08:46:02,0.26,5.26,0.00,18.90,23.65,27.65,14.85,47.64,1016.34,2047.03,1935.16,2040.98,2295.44,600.06,604.30,29.06,0000 0000 0000 0000 000000
2016-03-27 08:51:03,0.30,5.28,0.00,18.91,23.70,27.70,14.81,47.73,1016.43,2047.00,1932.00,2038.70,2292.97,600.00,604.26,29.11,0000 0000 0000 0000 000000
2016-03-27 08:56:05,0.21,5.29,0.00,18.88,23.75,27.78,14.79,47.81,1016.58,2047.00,1929.91,2036.96,2290.95,600.04,604.41,29.16,0000 0000 0000 0000 000000
2016-03-27 09:01:06,0.25,5.30,0.00,18.86,23.79,27.94,14.84,47.79,1016.62,2047.00,1927.48,2035.11,2288.86,600.02,604.48,29.21,0000 0000 0000 0000 000000
2016-03-27 09:06:07,0.23,5.31,0.00,18.84,23.83,28.06,14.89,47.85,1016.62,2046.98,1925.04,2033.28,2286.76,600.31,604.68,29.26,0000 0000 0000 0000 000000
2016-03-27 09:11:09,0.22,5.32,0.00,18.85,23.87,28.16,14.82,47.76,1016.62,2046.94,1922.91,2031.70,2284.89,599.84,604.41,29.31,0000 0000 0000 0000 000000
2016-03-27 09:16:09,0.13,5.33,0.00,18.82,23.91,28.19,14.84,47.83,1016.62,2046.44,1920.67,2030.03,2283.04,600.21,604.78,29.36,0000 0000 0000 0000 000000
2016-03-27 09:21:11,0.19,5.34,0.00,18.78,23.94,28.17,14.87,47.83,1016.63,2046.06,1918.53,2028.52,2281.29,599.90,604.59,29.41,0000 0000 0000 0000 000000
2016-03-27 09:26:12,0.18,5.35,0.00,18.72,23.96,28.14,14.86,47.78,1016.65,2046.01,1916.58,2027.03,2279.62,600.13,604.88,29.46,0000 0000 0000 0000 000000
2016-03-27 09:31:13,0.22,5.36,0.00,18.70,23.99,28.00,14.87,47.69,1016.71,2046.00,1914.44,2025.46,2277.77,600.10,604.93,29.51,0000 0000 0000 0000 000000
2016-03-27 09:36:15,0.27,5.37,0.00,18.66,24.01,27.98,14.86,47.65,1016.71,2046.00,1911.99,2023.58,2275.68,599.87,604.76,29.56,0000 0000 0000 0000 000000
2016-03-27 09:41:16,0.30,5.39,0.00,18.60,24.02,27.95,14.90,47.74,1016.76,2045.98,1908.82,2021.39,2273.17,600.21,605.38,29.61,0000 0000 0000 0000 000000
2016-03-27 09:46:18,0.25,5.40,0.00,18.57,24.02,27.99,14.86,47.88,1016.87,2045.97,1906.29,2019.59,2271.15,599.57,604.79,29.66,0000 0000 0000 0000 000000
2016-03-27 09:51:19,0.19,5.41,0.00,18.53,24.04,28.09,14.88,47.91,1017.02,2045.97,1904.19,2017.96,2269.27,599.96,605.39,29.71,0000 0000 0000 0000 000000
2016-03-27 09:56:20,0.23,5.42,0.00,18.51,24.04,28.09,14.91,47.83,1017.06,2045.97,1902.06,2016.52,2267.59,600.23,605.62,29.76,0000 0000 0000 0000 000000
2016-03-27 10:01:21,0.18,5.43,0.00,18.48,24.04,28.09,14.84,47.83,1017.08,2045.92,1900.00,2015.12,2265.90,599.97,605.55,29.81,0000 0000 0000 0000 000000
2016-03-27 10:06:23,0.20,5.44,0.00,18.48,24.04,28.06,14.85,47.84,1017.10,2045.91,1898.08,2013.68,2264.39,599.87,605.49,29.86,0000 0000 0000 0000 000000
2016-03-27 10:11:24,0.19,5.46,0.00,18.43,24.04,28.04,14.87,47.79,1017.10,2045.90,1896.17,2012.31,2262.72,600.13,605.74,29.91,0000 0000 0000 0000 000000
2016-03-27 10:16:25,0.17,5.46,0.00,18.38,24.02,28.05,14.88,47.83,1017.10,2045.84,1894.32,2010.91,2261.17,599.91,605.67,29.96,0000 0000 0000 0000 000000
2016-03-27 10:21:26,0.20,5.47,0.00,18.37,24.02,27.93,14.90,47.82,1017.10,2045.79,1892.34,2009.63,2259.69,600.02,605.63,30.01,0000 0000 0000 0000 000000
2016-03-27 10:26:28,0.18,5.48,0.00,18.34,24.00,27.95,14.94,47.84,1017.10,2045.92,1890.51,2008.40,2258.30,600.04,605.95,30.06,0000 0000 0000 0000 000000
2016-03-27 10:31:29,0.17,5.49,0.00,18.29,23.99,27.97,14.93,47.84,1017.11,2045.97,1888.70,2007.22,2256.84,599.74,605.74,30.11,0000 0000 0000 0000 000000
2016-03-27 10:36:30,0.15,5.50,0.00,18.26,23.97,27.96,14.95,47.80,1017.11,2045.98,1887.16,2006.02,2255.55,600.39,606.42,30.16,0000 0000 0000 0000 000000
2016-03-27 10:41:32,0.16,5.51,0.00,18.23,23.95,27.95,14.88,47.76,1017.11,2045.98,1885.49,2004.90,2254.28,599.91,606.03,30.21,0000 0000 0000 0000 000000
2016-03-27 10:46:33,0.20,5.52,0.00,18.19,23.93,27.91,14.96,47.78,1017.12,2045.99,1883.66,2003.66,2252.81,600.19,606.29,30.26,0000 0000 0000 0000 000000
2016-03-27 10:51:34,0.16,5.53,0.00,18.13,23.91,27.86,14.88,47.74,1017.13,2045.98,1881.92,2002.48,2251.40,600.03,606.21,30.31,0000 0000 0000 0000 000000
2016-03-27 10:56:35,0.18,5.54,0.00,18.11,23.88,27.81,14.95,47.74,1017.13,2045.99,1880.13,2001.23,2249.89,600.24,606.59,30.36,0000 0000 0000 0000 000000
2016-03-27 11:01:37,0.17,5.55,0.00,18.07,23.86,27.82,14.98,47.76,1017.19,2045.99,1878.45,1999.98,2248.49,600.40,606.82,30.41,0000 0000 0000 0000 000000
2016-03-27 11:06:38,0.17,5.55,0.00,18.04,23.83,27.70,14.87,47.67,1017.30,2045.99,1876.82,1998.82,2247.08,599.83,606.44,30.46,0000 0000 0000 0000 000000
2016-03-27 11:11:40,0.19,5.56,0.00,18.01,23.80,27.73,14.91,47.69,1017.50,2045.99,1874.93,1997.59,2245.67,599.86,606.64,30.51,0000 0000 0000 0000 000000
2016-03-27 11:16:41,0.18,5.57,0.00,17.96,23.77,27.69,14.87,47.69,1017.54,2046.01,1873.02,1996.32,2244.18,599.75,606.56,30.56,0000 0000 0000 0000 000000
2016-03-27 11:21:43,0.18,5.58,0.00,17.90,23.74,27.63,14.99,47.74,1017.54,2046.02,1871.20,1995.03,2242.74,600.13,607.12,30.61,0000 0000 0000 0000 000000
2016-03-27 11:26:44,0.20,5.59,0.00,17.89,23.71,27.57,14.89,47.64,1017.58,2046.09,1869.34,1993.76,2241.34,599.92,606.89,30.66,0000 0000 0000 0000 000000
2016-03-27 11:31:45,0.24,5.60,0.00,17.85,23.67,27.62,14.89,47.73,1017.58,2046.56,1867.55,1992.60,2239.93,599.91,607.08,30.71,0000 0000 0000 0000 000000
2016-03-27 11:36:46,0.19,5.61,0.00,17.79,23.64,27.54,14.92,47.67,1017.57,2046.88,1865.92,1991.55,2238.81,600.03,607.41,30.76,0000 0000 0000 0000 000000
2016-03-27 11:41:48,0.15,5.62,0.00,17.74,23.60,27.49,14.85,47.61,1017.59,2046.94,1864.58,1990.49,2237.59,599.70,607.02,30.81,0000 0000 0000 0000 000000
2016-03-27 11:46:49,0.19,5.63,0.00,17.72,23.57,27.48,14.94,47.69,1017.58,2046.98,1862.52,1989.22,2236.23,600.16,607.59,30.86,0000 0000 0000 0000 000000
2016-03-27 11:51:50,0.18,5.64,0.00,17.67,23.53,27.51,14.95,47.68,1017.58,2046.99,1860.58,1988.01,2234.80,600.16,607.82,30.91,0000 0000 0000 0000 000000
2016-03-27 11:56:52,0.13,5.65,0.00,17.62,23.50,27.44,14.95,47.65,1017.59,2046.99,1859.19,1987.05,2233.69,600.11,607.89,30.96,0000 0000 0000 0000 000000
2016-03-27 12:01:53,0.12,5.65,0.00,17.59,23.46,27.35,14.97,47.68,1017.59,2046.99,1858.31,1986.24,2232.56,600.09,607.69,31.01,0000 0000 0000 0000 000000
2016-03-27 12:06:55,0.16,5.66,0.00,17.56,23.42,27.43,14.83,47.56,1017.59,2046.99,1856.64,1985.17,2231.41,599.67,607.47,31.06,0000 0000 0000 0000 000000
2016-03-27 12:11:56,0.12,5.67,0.00,17.49,23.38,27.35,14.88,47.57,1017.59,2046.99,1855.40,1984.22,2230.31,599.75,607.75,31.11,0000 0000 0000 0000 000000
2016-03-27 12:16:57,0.12,5.67,0.00,17.43,23.34,27.34,14.95,47.63,1017.59,2046.99,1854.07,1983.53,2229.25,600.11,608.07,31.16,0000 0000 0000 0000 000000
2016-03-27 12:21:58,0.19,5.68,0.00,17.41,23.29,27.23,15.02,47.73,1017.59,2047.04,1852.08,1982.40,2228.02,600.32,608.31,31.21,0000 0000 0000 0000 000000
2016-03-27 12:26:59,0.18,5.69,0.00,17.34,23.25,27.28,14.91,47.76,1017.59,2047.40,1850.80,1981.51,2226.90,600.04,608.33,31.26,0000 0000 0000 0000 000000
2016-03-27 12:32:00,0.19,5.70,0.00,17.29,23.21,27.12,14.93,47.76,1017.59,2047.75,1849.45,1980.56,2225.75,599.97,608.29,31.31,0000 0000 0000 0000 000000
2016-03-27 12:37:02,0.18,5.71,0.00,17.27,23.16,27.15,14.96,47.81,1017.59,2047.95,1847.78,1979.58,2224.58,599.92,608.41,31.36,0000 0000 0000 0000 000000
2016-03-27 12:42:03,0.13,5.72,0.00,17.23,23.12,27.12,14.99,47.82,1017.59,2047.98,1846.53,1978.64,2223.52,600.05,608.55,31.41,0000 0000 0000 0000 000000
2016-03-27 12:47:04,0.13,5.73,0.00,17.18,23.07,27.05,14.92,47.77,1017.59,2048.00,1845.11,1977.71,2222.41,599.89,608.54,31.46,0000 0000 0000 0000 000000
2016-03-27 12:52:05,0.15,5.73,0.00,17.13,23.03,26.94,14.89,47.73,1017.59,2048.03,1843.64,1976.75,2221.28,599.91,608.58,31.51,0000 0000 0000 0000 000000
2016-03-27 12:57:05,0.20,5.74,0.00,17.09,22.98,26.92,14.96,47.63,1017.59,2048.39,1842.09,1975.80,2220.21,599.91,608.77,31.56,0000 0000 0000 0000 000000
2016-03-27 13:02:06,0.18,5.75,0.00,17.04,22.94,26.91,14.86,47.61,1017.59,2048.93,1840.64,1974.86,2219.20,599.88,608.78,31.61,0000 0000 0000 0000 000000